Other Surface Observations
Issued by NWS

Current Version | Previous Version | Text Only | Print | Product List | Glossary On
Versions: 1 2 3 4 5 6 7 8 9 10 11 12 13 14 15 16 17 18 19 20 21 22 23 24 25 26 27 28 29 30 31 32 33 34 35 36 37 38 39 40 41 42 43 44 45 46 47 48 49 50
000
SXUS52 KTAE 241611
OSOTAE
OSOTAE
North Florida/South Alabama/Southwest Georgia Weather Roundup
National Weather Service Tallahassee Florida
1200 PM EDT SUN MAY 24 2015

Note: "fair" indicates few or no clouds below 12,000 feet with no
significant weather and/or obstructions to visibility.

!FLZ017-115-028-034-025-241700
...North Florida...

CITY           SKY/WX    TMP DP  RH WIND       PRES   REMARKS
TALLAHASSEE    PTSUNNY   83  67  58 SE7       30.24S
APALACHICOLA   CLOUDY    85  72  65 E14       30.22S HX  91
PERRY          SUNNY     85  67  54 NE7       30.25S
CROSS CITY       N/A     86  67  52 SE7       30.23S
JACKSONVILLE   MOSUNNY   82  63  52 E14       30.28S
$$

!FLZ112-006-005-002-011-241700
...Florida Panhandle...

CITY           SKY/WX    TMP DP  RH WIND       PRES   REMARKS
MARIANNA       CLOUDY    82  70  66 E10       30.23S
BONIFAY        CLOUDY    82  70  66 E8        30.23S
PANAMA CITY NW PTSUNNY   85  71  63 E10G18    30.20F HX  90
TYNDALL AFB    MOSUNNY   85  71  63 SE14      30.20S HX  90
TYND DRONE APT FAIR      88  72  58 SE14G21   30.20S HX  94
DE FUNIAK SPR  PTSUNNY   82  71  68 MISG      30.22S
EGLIN AFB      PTSUNNY   85  73  66 SE18G24   30.20S HX  91
DESTIN         MOSUNNY   85  74  69 SE17G24   30.20R HX  92
HURLBURT       PTSUNNY   83  73  72 SE16G28   30.18S
CRESTVIEW      PTSUNNY   85  71  63 SE9G20    30.21F HX  90
PENSACOLA      CLOUDY    81  74  79 SE21G26   30.18R
$$

!ALZ063-066-241700
...South Alabama...

CITY           SKY/WX    TMP DP  RH WIND       PRES   REMARKS
DOTHAN         PTSUNNY   82  68  62 SE14      30.27F
OZARK CAIRNS   PTSUNNY   82  70  65 SE9       30.23S
FT RUCKER HELI CLOUDY    81  68  64 VRB6      30.22S
RUCKER HELI 3  PTSUNNY   81  69  67 SE10G17   30.24
RUCKER HELI 2  CLOUDY    80  69  69 SE12      30.23S
FLORALA APT    CLOUDY    82  71  69 SE9G16    30.23S
ANDALUSIA      CLOUDY    84  70  62 VRB6G16   30.22S
TROY           CLOUDY    81  69  67 SE14      30.25F
EUFALA         CLOUDY    83  68  60 E9G17     30.26F
MOBILE         PTSUNNY   83  73  72 SE14      30.17S
$$

!GAZ120>161-241700
...Southwest and South Central Georgia...

CITY           SKY/WX    TMP DP  RH WIND       PRES   REMARKS
THOMASVILLE    PTSUNNY   81  68  65 SE13      30.28S HAZE
BAINBRIDGE     MOSUNNY   86  70  58 SE10      30.26S HX  90
MOODY AFB      MOSUNNY   84  63  50 VRB5G17   30.27S
VALDOSTA       MOSUNNY   84  64  50 SE10G17   30.27F
MOULTRIE       MOSUNNY   82  64  54 SE9       30.28S
BLAKELY        CLOUDY    82  68  61 SE7       30.27S
ALBANY         CLOUDY    83  65  54 E10       30.30F
TIFTON         PTSUNNY   80  62  52 E6        30.29S
FITZGERALD     FAIR      83  59  44 E8G16     30.33S
CORDELE        FAIR      83  65  56 S8        30.31F
AMERICUS       CLOUDY    81  63  54 E13       30.32F
HOMERVILLE     FAIR      86  64  48 SE8       30.29S
$$

!GMZ750-755-770-775-241700
...Coastal and Buoy Obs...

STATION/POSITION TIME  TEMP    WIND        PRES    VSBY  WAVE
                       AIR SEA DIR/SP/G                  HT/PER
                 (UTC) (F)     (DEG/KT/KT) (MB)    (MI)  (FT/S)
KEATON BEACH     1600   82      60/  6/ 10 1023.8F
CEDAR KEY        1600   81     100/ 11/ 13 1023.6S
C TOWER          1600   78     100/ 18/ 19 1023.2R
APALACHICOLA BUO 1550   80 80  110/ 16/ 17 1022.6R         5/ 6
PANAMA CITY BUOY 1550   80 81  120/ 17/ 19 1022.1R         6/ 6
MOBILE BUOY      1550   81 80  130/ 16/ 19 1020.7R         4/ 6
ORANGE BCH AL BU 1550   81 80  130/ 17/ 21 1020.6R         4/ 5
$$



USA.gov is the U.S. government's official web portal to all federal, state and local government web resources and services.